Starlink 31985

operational
NORAD ID: 60036 Int'l Des: 2024-111 Owner: SPXS Country: US Constellation: starlink
LEOCIRCULAR

Über Starlink 31985

Beschreibung wird geladen...

Live-Position

3D-Globus wird geladen...

Nächste Überflüge

Höhenverlauf

Altitude vs Time

uPlot chart will show altitude changes over time

Zweizeiliger Elementsatz

1 60036U 24111W 25259.44040565 -.00002369 00000-0 -67947-4 0 9994
2 60036 53.1608 165.0981 0001100 74.6133 285.4990 15.30173911 72294
Epoch: 16. Sept. 2025 • Age: 17 hours

Aktueller Status

Höhe 478.9 km
Geschwindigkeit 7.63 km/s
Subsatellitenpunkt -13.16°S, 99.29°E
Startdatum 8. Juni 2024
Alter 1.2 years
Typ internet

Technische Details

Klassifizierung Payload
Masse 730.00 kg
Trockenmasse 700.00 kg
Gesamtmasse 730.00 kg
Länge 0.30 m
Durchmesser 4.10 m
Spannweite 29.00 m
Form Box + pan
Hersteller SPXS
Bus-Typ Starlink V2M
Phasenstatus In Orbit
Besitzer/Staat SPXS/US

Große Konstellationen

Loading constellations...